FW6267 Weather Reports


Display with metric or nautical units.
time (UTC)temp
F
wind
direction
speed
MPH
gust
MPH
rain 1hr
in
rain 24hr
in
rain mn
in
humidity
%
barometer
mb
20260506201557 45 5 4.0 11.0 0.07 0.78 0.74 93 1005.7
20260506201058 45 355 4.0 9.0 0.07 0.78 0.74 93 1005.6
20260506200557 45 31 3.0 7.0 0.06 0.76 0.72 94 1005.6
20260506200146 45 288 2.0 8.0 0.06 0.76 0.72 94 1005.7
20260506195557 45 5 3.0 9.0 0.05 0.75 0.71 93 1005.8
20260506195057 45 342 3.0 10.0 0.04 0.74 0.70 94 1005.6
20260506194607 45 43 3.0 10.0 0.04 0.74 0.70 93 1005.6
20260506194058 45 360 5.0 9.0 0.04 0.73 0.69 93 1005.5
20260506193558 46 27 3.0 9.0 0.03 0.72 0.68 93 1005.5
20260506193057 46 360 4.0 9.0 0.03 0.72 0.68 93 1005.6
20260506192557 46 35 4.0 9.0 0.02 0.71 0.67 93 1005.7
20260506192057 46 10 2.0 10.0 0.02 0.71 0.67 94 1005.7
20260506191555 46 22 5.0 10.0 0.02 0.71 0.67 94 1005.6
20260506191058 46 30 4.0 11.0 0.02 0.71 0.67 93 1005.6
20260506190558 46 18 3.0 11.0 0.01 0.70 0.66 93 1005.8
20260506190057 46 34 4.0 11.0 0.02 0.70 0.66 93 1005.7
20260506185557 46 55 3.0 9.0 0.02 0.70 0.66 93 1005.7
20260506185058 47 71 4.0 10.0 0.03 0.70 0.66 93 1005.6
20260506184601 47 17 3.0 10.0 0.04 0.70 0.66 93 1005.5
20260506184057 47 57 5.0 8.0 0.04 0.69 0.65 93 1005.5
20260506183558 48 327 1.0 6.0 0.05 0.69 0.65 93 1005.7
20260506183102 49 10 3.0 7.0 0.06 0.69 0.65 93 1005.6
20260506182557 49 5 4.0 9.0 0.07 0.69 0.65 93 1005.6
20260506182100 50 68 3.0 9.0 0.08 0.69 0.65 93 1005.4
20260506181555 50 36 5.0 9.0 0.08 0.69 0.65 93 1005.6
20260506181058 51 67 4.0 9.0 0.08 0.69 0.65 93 1005.6
20260506180602 52 21 3.0 6.0 0.08 0.69 0.65 94 1005.8
20260506180105 52 64 3.0 9.0 0.08 0.68 0.64 93 1005.9
20260506175558 52 360 1.0 9.0 0.09 0.68 0.64 93 1006.0
20260506175100 53 34 1.0 9.0 0.09 0.67 0.63 93 1006.1
20260506174601 55 301 1.0 4.0 0.08 0.66 0.62 94 1006.1
20260506174058 55 259 2.0 4.0 0.08 0.65 0.61 94 1006.1
20260506173559 55 0 0.0 4.0 0.08 0.64 0.60 94 1006.2
20260506173122 55 138 0.0 3.0 0.08 0.63 0.58 94 1006.1
20260506172600 55 0 0.0 3.0 0.08 0.62 0.58 94 1006.1
20260506172057 55 88 0.0 4.0 0.08 0.61 0.57 94 1006.1
20260506171602 55 267 1.0 4.0 0.09 0.61 0.57 94 1006.2
20260506171056 55 103 0.0 5.0 0.10 0.61 0.57 94 1006.2
20260506170559 55 0 0.0 5.0 0.10 0.61 0.57 94 1006.4
20260506170058 55 221 1.0 3.0 0.10 0.60 0.56 94 1006.3
20260506165558 54 270 0.0 5.0 0.09 0.58 0.55 94 1006.4
20260506165056 55 180 0.0 5.0 0.08 0.58 0.54 94 1006.3
20260506164559 55 0 0.0 3.0 0.09 0.58 0.54 94 1006.3
20260506164058 55 60 0.0 3.0 0.08 0.57 0.52 94 1006.3
20260506163557 55 0 0.0 2.0 0.08 0.56 0.52 94 1006.3
20260506163103 55 0 0.0 2.0 0.08 0.55 0.51 94 1006.4
20260506162558 54 0 0.0 2.0 0.08 0.54 0.50 94 1006.5
20260506162055 54 0 0.0 4.0 0.07 0.52 0.49 94 1006.5
20260506161559 54 0 0.0 8.0 0.07 0.52 0.48 94 1006.6
20260506161058 54 198 1.0 8.0 0.06 0.51 0.47 94 1006.7
20260506160556 54 216 1.0 8.0 0.07 0.51 0.47 94 1006.8
20260506160108 54 154 1.0 6.0 0.07 0.50 0.46 94 1006.8
20260506155558 54 0 0.0 3.0 0.08 0.50 0.46 94 1006.9
20260506155056 54 0 0.0 4.0 0.09 0.50 0.46 94 1006.9
20260506154600 54 0 0.0 4.0 0.09 0.49 0.45 94 1007.0
20260506154056 54 214 2.0 5.0 0.09 0.49 0.45 94 1007.1
20260506153555 53 0 0.0 5.0 0.08 0.48 0.44 94 1007.1
20260506153058 53 220 0.0 3.0 0.08 0.47 0.43 94 1007.1
20260506152556 54 236 0.0 3.0 0.07 0.46 0.42 94 1007.1
20260506152059 53 238 0.0 3.0 0.07 0.46 0.42 94 1007.1
20260506151556 53 0 0.0 2.0 0.07 0.45 0.41 94 1007.1
20260506151058 53 81 0.0 4.0 0.07 0.45 0.41 94 1007.3
20260506150557 53 0 0.0 4.0 0.07 0.44 0.40 94 1007.4
20260506145602 53 211 0.0 2.0 0.07 0.42 0.38 94 1007.5
20260506145058 53 234 0.0 2.0 0.06 0.41 0.37 94 1007.5
20260506144557 52 0 0.0 3.0 0.06 0.40 0.36 93 1007.5
20260506144056 52 0 0.0 3.0 0.06 0.40 0.36 93 1007.6
20260506143556 52 234 0.0 3.0 0.07 0.40 0.36 94 1007.7
20260506143058 52 234 0.0 4.0 0.06 0.39 0.35 93 1007.6
20260506142555 52 234 2.0 4.0 0.06 0.39 0.35 93 1007.6
20260506142057 52 244 0.0 0.0 0.07 0.39 0.35 93 1007.6
20260506141556 52 0 0.0 0.0 0.06 0.38 0.34 93 1007.7
20260506141058 52 0 0.0 0.0 0.07 0.38 0.34 94 1007.6
20260506140600 52 0 0.0 0.0 0.06 0.37 0.33 93 1007.7
20260506140059 52 0 0.0 0.0 0.06 0.36 0.32 94 1007.7
20260506135557 52 0 0.0 0.0 0.05 0.35 0.31 93 1007.8
20260506135057 52 0 0.0 0.0 0.06 0.35 0.31 93 1007.8
20260506134620 51 0 0.0 0.0 0.06 0.34 0.30 93 1007.9
20260506134100 51 0 0.0 0.0 0.06 0.34 0.30 93 1007.9
20260506133556 51 0 0.0 0.0 0.05 0.33 0.29 93 1008.0
20260506133058 51 0 0.0 0.0 0.05 0.33 0.29 93 1008.0
20260506132556 52 0 0.0 0.0 0.05 0.33 0.29 93 1007.9
20260506132056 52 0 0.0 3.0 0.04 0.32 0.28 93 1007.9
20260506131609 51 0 0.0 3.0 0.04 0.32 0.28 93 1007.8
20260506131056 51 360 0.0 4.0 0.04 0.31 0.27 93 1008.0
20260506130556 51 9 1.0 4.0 0.04 0.31 0.27 93 1008.0
20260506130058 51 40 1.0 4.0 0.03 0.30 0.26 93 1008.0
20260506125555 51 321 1.0 3.0 0.03 0.30 0.26 93 1008.4
20260506125055 51 5 0.0 2.0 0.02 0.29 0.25 93 1008.4
20260506124558 51 0 0.0 3.0 0.01 0.28 0.24 93 1008.3
20260506124058 51 5 1.0 3.0 0.01 0.28 0.24 93 1008.3
20260506123558 51 311 0.0 3.0 0.01 0.28 0.24 93 1008.5
20260506123057 51 0 1.0 4.0 0.01 0.28 0.24 93 1008.4
20260506122556 51 0 1.0 4.0 0.01 0.28 0.24 93 1008.3
20260506122057 51 0 2.0 10.0 0.01 0.28 0.24 93 1008.2
20260506121605 51 222 6.0 10.0 0.01 0.28 0.24 93 1008.4
20260506121056 51 69 4.0 8.0 0.00 0.27 0.23 93 1007.7
20260506120556 51 350 0.0 6.0 0.00 0.27 0.23 93 1008.6
20260506115558 51 293 1.0 4.0 0.00 0.27 0.23 93 1008.6
20260506115055 51 69 1.0 4.0 0.00 0.27 0.23 93 1008.5
20260506114557 51 0 1.0 4.0 0.00 0.27 0.23 93 1008.8
20260506114059 51 42 0.0 5.0 0.00 0.27 0.23 93 1008.6
20260506113602 51 344 2.0 5.0 0.00 0.27 0.23 93 1008.5
20260506113101 51 20 2.0 5.0 0.00 0.27 0.23 93 1008.3
20260506112600 51 355 0.0 2.0 0.00 0.27 0.23 93 1008.4
20260506112100 51 0 0.0 2.0 0.00 0.27 0.23 93 1008.5
20260506111622 51 82 0.0 0.0 0.00 0.27 0.23 93 1008.4
20260506111058 51 0 0.0 0.0 0.00 0.27 0.23 93 1008.5
20260506110558 51 0 0.0 1.0 0.00 0.27 0.23 93 1008.4
20260506110109 51 0 0.0 1.0 0.00 0.27 0.23 93 1008.5
20260506105558 51 0 0.0 2.0 0.00 0.27 0.23 93 1008.4
20260506105058 51 0 0.0 3.0 0.00 0.27 0.23 93 1008.4
20260506104607 51 360 0.0 4.0 0.00 0.27 0.23 93 1008.4
20260506104058 51 24 1.0 4.0 0.00 0.27 0.23 93 1008.3
20260506103559 51 44 2.0 4.0 0.00 0.27 0.23 93 1008.2
20260506103106 51 16 1.0 4.0 0.00 0.27 0.23 93 1008.4
20260506102558 51 16 1.0 4.0 0.00 0.27 0.23 93 1008.4
20260506102059 51 29 2.0 4.0 0.00 0.27 0.23 93 1008.0
20260506101602 51 22 2.0 4.0 0.00 0.27 0.23 93 1008.1
20260506101057 51 15 1.0 4.0 0.00 0.27 0.23 93 1008.5
20260506100603 51 59 1.0 4.0 0.00 0.27 0.23 93 1008.2
20260506100106 50 52 1.0 3.0 0.00 0.27 0.23 93 1008.4
20260506095600 50 51 1.0 3.0 0.00 0.27 0.23 93 1008.6
20260506095100 50 51 1.0 2.0 0.00 0.27 0.23 93 1008.6
20260506094601 50 0 0.0 3.0 0.00 0.27 0.23 92 1008.5
20260506094100 50 51 1.0 3.0 0.00 0.27 0.23 92 1008.6
20260506093602 50 51 1.0 3.0 0.00 0.27 0.23 92 1008.6
20260506093100 50 51 1.0 4.0 0.00 0.27 0.23 92 1008.6
20260506092557 51 51 2.0 4.0 0.00 0.27 0.23 92 1008.7
20260506092102 51 54 2.0 4.0 0.00 0.27 0.23 92 1008.7
20260506091600 51 96 2.0 4.0 0.00 0.27 0.23 92 1008.6
20260506091100 51 55 2.0 5.0 0.00 0.27 0.23 92 1008.8
20260506090600 51 67 2.0 5.0 0.00 0.27 0.23 92 1008.9
20260506090059 51 88 2.0 8.0 0.00 0.27 0.23 92 1009.0
20260506085557 51 67 2.0 8.0 0.00 0.27 0.23 92 1008.9
20260506085100 51 95 1.0 4.0 0.00 0.27 0.23 92 1008.7
20260506084606 51 0 0.0 0.0 0.00 0.27 0.23 92 1008.7
20260506084100 51 0 0.0 0.0 0.00 0.27 0.23 92 1008.9
20260506083600 51 0 0.0 0.0 0.00 0.27 0.23 92 1009.0
20260506083121 51 0 0.0 0.0 0.00 0.27 0.23 92 1009.1
20260506082600 51 0 0.0 0.0 0.00 0.27 0.23 92 1009.3
20260506082057 51 0 0.0 0.0 0.00 0.27 0.23 92 1009.2
20260506081604 51 0 0.0 0.0 0.00 0.27 0.23 92 1009.0
20260506081100 51 0 0.0 0.0 0.00 0.27 0.23 92 1009.1
20260506080600 51 0 0.0 0.0 0.00 0.27 0.23 92 1009.2
20260506073059 51 0 0.0 0.0 0.00 0.27 0.23 91 1008.5
20260506072600 51 0 0.0 0.0 0.00 0.27 0.23 91 1008.7
20260506072100 51 0 0.0 0.0 0.00 0.27 0.23 91 1008.7
20260506071559 52 0 0.0 0.0 0.00 0.27 0.23 91 1008.7
20260506071059 52 0 0.0 0.0 0.01 0.27 0.23 91 1008.8
20260506070559 52 0 0.0 0.0 0.01 0.27 0.23 91 1008.7
20260506070124 52 0 0.0 2.0 0.01 0.27 0.23 90 1008.6
20260506062059 52 0 0.0 0.0 0.05 0.27 0.23 91 1009.0
20260506061600 52 0 0.0 1.0 0.09 0.27 0.23 90 1008.9
20260506061100 52 0 0.0 1.0 0.13 0.26 0.22 90 1009.0
20260506060556 52 0 0.0 2.0 0.15 0.26 0.22 90 1009.0
20260506051102 55 238 4.0 12.0 0.09 0.13 0.09 84 1010.0
20260506050559 56 224 3.0 7.0 0.07 0.11 0.07 84 1009.9
20260506050109 56 0 2.0 6.0 0.07 0.11 0.07 84 1009.0
20260506045059 56 319 0.0 7.0 0.06 0.10 0.06 84 1009.0
20260506044558 56 0 2.0 8.0 0.06 0.10 0.06 84 1009.2
20260506044059 57 0 3.0 8.0 0.04 0.08 0.04 84 1009.5
20260506043557 57 257 2.0 7.0 0.03 0.07 0.03 84 1009.3
20260506043059 57 250 1.0 7.0 0.02 0.06 0.02 84 1009.0
20260506042559 57 248 1.0 7.0 0.00 0.04 0.00 84 1009.1
20260506042100 57 0 0.0 0.0 0.00 0.04 0.00 83 1009.1
20260506041619 57 0 0.0 0.0 0.00 0.04 0.00 83 1008.9
20260506041059 57 0 0.0 0.0 0.00 0.04 0.00 82 1008.8
20260506040559 58 0 0.0 2.0 0.00 0.04 0.00 80 1008.7
20260506035556 58 211 0.0 5.0 0.00 0.04 0.04 79 1008.7
20260506035056 59 204 1.0 5.0 0.00 0.04 0.04 78 1008.7
20260506034601 59 213 2.0 5.0 0.00 0.04 0.04 78 1008.5
20260506034056 58 213 1.0 3.0 0.00 0.04 0.04 79 1008.5
20260506033559 58 196 0.0 3.0 0.00 0.04 0.04 79 1008.5
20260506033059 58 0 0.0 1.0 0.00 0.04 0.04 79 1008.2
20260506032600 58 0 0.0 2.0 0.00 0.04 0.04 79 1008.2
20260506032102 58 0 0.0 2.0 0.00 0.04 0.04 79 1008.2
20260506031602 58 185 0.0 1.0 0.00 0.04 0.04 80 1008.3
20260506031101 58 0 0.0 1.0 0.00 0.04 0.04 79 1008.1
20260506030600 58 0 0.0 1.0 0.00 0.04 0.04 79 1008.2
20260506030059 58 0 0.0 2.0 0.00 0.04 0.04 78 1008.1
20260506025603 58 0 0.0 2.0 0.00 0.04 0.04 78 1008.2
20260506025059 58 0 0.0 2.0 0.00 0.04 0.04 78 1007.9
20260506024607 58 0 0.0 0.0 0.00 0.04 0.04 78 1007.9
20260506024057 58 0 0.0 0.0 0.00 0.04 0.04 79 1008.1
20260506023558 58 0 0.0 0.0 0.00 0.04 0.04 79 1008.2
20260506023057 58 0 0.0 0.0 0.00 0.04 0.04 79 1008.2
20260506022559 58 0 0.0 0.0 0.00 0.04 0.04 80 1008.2
20260506022057 58 0 0.0 0.0 0.00 0.04 0.04 80 1008.4
20260506021601 57 0 0.0 0.0 0.00 0.04 0.04 81 1008.3
20260506021057 57 0 0.0 0.0 0.00 0.04 0.04 81 1008.5
20260506020559 57 0 0.0 0.0 0.00 0.04 0.04 81 1008.4
20260506020111 57 0 0.0 0.0 0.00 0.04 0.04 80 1008.3
20260506015557 57 0 0.0 0.0 0.00 0.04 0.04 80 1008.0
20260506015058 57 0 0.0 0.0 0.00 0.04 0.04 80 1007.9
20260506014614 57 0 0.0 4.0 0.00 0.04 0.04 80 1007.8
20260506014100 57 0 0.0 4.0 0.00 0.04 0.04 80 1007.7
20260506013600 57 0 0.0 1.0 0.00 0.04 0.04 80 1007.5
20260506013102 57 0 0.0 2.0 0.00 0.04 0.04 79 1007.6
20260506012600 57 0 0.0 2.0 0.00 0.04 0.04 79 1007.5
20260506012056 57 0 0.0 3.0 0.00 0.04 0.04 79 1007.6
20260506011628 57 102 0.0 4.0 0.00 0.04 0.04 79 1007.5
20260506011057 58 102 1.0 4.0 0.00 0.04 0.04 79 1007.5
20260506010601 58 102 1.0 3.0 0.00 0.04 0.04 79 1007.3
20260506010059 58 77 0.0 3.0 0.00 0.04 0.04 79 1007.3
20260506005556 58 77 1.0 4.0 0.00 0.04 0.04 79 1007.3
20260506005056 58 77 1.0 4.0 0.00 0.04 0.04 79 1007.3
20260506004607 58 77 2.0 3.0 0.00 0.04 0.04 80 1007.2
20260506004059 58 77 1.0 3.0 0.00 0.04 0.04 80 1007.3
20260506003559 58 77 1.0 3.0 0.00 0.04 0.04 80 1007.3
20260506003057 58 77 1.0 3.0 0.00 0.04 0.04 79 1007.2
20260506002601 58 77 1.0 4.0 0.00 0.04 0.04 80 1007.3
20260506002100 59 77 1.0 4.0 0.00 0.04 0.04 79 1007.1
20260506001605 59 76 2.0 4.0 0.00 0.04 0.04 78 1007.1
20260506001059 59 92 2.0 4.0 0.00 0.04 0.04 78 1007.1
20260506000602 59 100 1.0 4.0 0.00 0.04 0.04 77 1007.3
20260506000122 59 102 0.0 3.0 0.00 0.04 0.04 77 1007.4
20260505235600 59 95 0.0 3.0 0.00 0.04 0.04 77 1007.5
20260505235057 60 95 0.0 3.0 0.00 0.04 0.04 76 1007.1
20260505234601 60 0 0.0 3.0 0.00 0.04 0.04 76 1007.3
20260505234057 59 0 0.0 3.0 0.00 0.04 0.04 78 1007.3
20260505233556 59 0 0.0 4.0 0.00 0.04 0.04 77 1007.3
20260505233102 60 0 0.0 4.0 0.00 0.04 0.04 77 1007.3
20260505232557 60 0 0.0 2.0 0.00 0.04 0.04 77 1007.2
20260505232101 60 0 0.0 2.0 0.00 0.04 0.04 77 1007.2
20260505231612 59 0 0.0 2.0 0.00 0.04 0.04 79 1007.1
20260505231059 59 0 0.0 3.0 0.00 0.04 0.04 79 1007.0
20260505230559 60 0 0.0 3.0 0.00 0.04 0.04 79 1007.0
20260505230108 60 107 1.0 3.0 0.00 0.04 0.04 79 1006.8
20260505225559 60 107 1.0 3.0 0.00 0.04 0.04 79 1006.8
20260505225059 60 0 1.0 3.0 0.00 0.04 0.04 78 1006.9
20260505224559 61 0 0.0 2.0 0.00 0.04 0.04 76 1006.9
20260505224058 61 255 0.0 3.0 0.00 0.04 0.04 75 1006.7
20260505223600 62 0 0.0 3.0 0.00 0.04 0.04 74 1006.9
20260505223056 62 235 1.0 10.0 0.00 0.04 0.04 72 1006.7
20260505222600 62 236 4.0 10.0 0.00 0.04 0.04 71 1006.8
20260505222057 62 217 1.0 13.0 0.00 0.04 0.04 71 1006.8
20260505221603 62 257 2.0 13.0 0.00 0.04 0.04 72 1006.6
20260505221059 62 330 6.0 13.0 0.00 0.04 0.04 72 1006.6
20260505220602 61 210 4.0 12.0 0.00 0.04 0.04 76 1006.6
20260505220058 61 232 1.0 8.0 0.00 0.04 0.04 80 1006.6
20260505215556 61 0 1.0 9.0 0.00 0.04 0.04 81 1006.7
20260505215057 61 240 4.0 9.0 0.00 0.04 0.04 80 1007.0
20260505214557 61 184 3.0 7.0 0.00 0.04 0.04 79 1006.8
20260505214100 61 249 0.0 3.0 0.00 0.04 0.04 80 1006.6
20260505213558 62 0 0.0 4.0 0.00 0.04 0.04 78 1006.1
20260505213059 62 111 1.0 4.0 0.00 0.04 0.04 79 1005.9
20260505212601 63 151 0.0 11.0 0.00 0.04 0.04 80 1006.0
20260505212057 62 66 4.0 11.0 0.00 0.04 0.04 82 1005.6
20260505211557 62 90 3.0 8.0 0.01 0.04 0.04 82 1005.4
20260505211056 62 50 3.0 7.0 0.02 0.04 0.04 82 1005.6
20260505210557 61 230 0.0 7.0 0.04 0.04 0.04 82 1005.6
20260505210058 61 202 2.0 12.0 0.04 0.04 0.04 80 1005.9
20260505205600 60 183 3.0 12.0 0.04 0.04 0.04 80 1006.1
20260505205057 60 207 2.0 9.0 0.04 0.04 0.04 80 1006.2
20260505204601 60 219 2.0 9.0 0.04 0.04 0.04 80 1006.2
20260505204057 60 224 5.0 10.0 0.04 0.04 0.04 79 1006.1
20260505203559 60 198 5.0 10.0 0.04 0.04 0.04 79 1006.4
20260505203105 60 230 5.0 11.0 0.04 0.04 0.04 79 1006.2
20260505202557 60 217 4.0 21.0 0.04 0.04 0.04 79 1005.8
20260505202057 60 222 6.0 23.0 0.04 0.04 0.04 76 1005.6